Theta_e
334 325 321 320 317 313 312 312 311 313 312 311 311 310 310 309 309 309 309 310 310 310 310 311 310 311 312 313 314 315 318 317 317 319 325 340 342 343 342 341 340 339 343
330 331 319 318 315 314 313 312 312 313 313 312 311 311 311 311 310 310 310 310 310 310 311 313 315 316 317 319 320 322 321 324 323 319 318 323 338 342 342 341 341 338 340
332 329 320 316 315 314 314 313 313 314 313 312 312 312 312 312 312 312 310 310 310 313 316 319 320 323 326 326 327 326 325 325 325 326 328 322 320 336 340 342 341 342 339
334 323 320 316 315 315 315 315 313 314 314 313 313 313 314 314 314 314 313 313 313 317 323 327 327 328 331 333 333 331 330 328 328 331 328 320 312 323 326 338 340 340 341
336 324 320 317 315 315 316 316 314 314 314 314 314 315 315 315 315 315 316 317 318 327 329 331 332 333 334 335 337 336 332 330 329 332 329 319 317 323 332 330 339 339 342
334 325 321 318 315 316 316 316 315 314 315 315 315 315 316 316 317 317 318 320 324 332 333 335 335 335 336 336 335 337 337 335 334 331 329 323 326 328 338 332 337 339 339
328 325 322 319 316 316 316 316 316 314 315 315 315 316 316 317 318 319 320 321 324 333 335 336 337 337 338 338 337 337 336 334 335 332 332 329 330 332 340 337 339 339 339
330 326 323 320 318 316 316 316 316 315 315 316 316 316 317 318 319 320 321 322 326 331 334 337 338 338 336 334 335 335 337 337 334 329 332 331 331 333 337 337 333 332 336
333 328 325 322 319 316 316 316 316 316 315 316 317 317 317 318 319 319 320 322 326 331 334 335 337 335 334 333 330 331 335 336 336 333 327 328 333 334 335 333 329 328 329
336 331 328 325 321 316 315 316 316 316 316 316 317 318 318 319 320 320 321 321 326 331 331 329 329 330 332 333 330 329 333 335 335 335 331 325 328 334 333 334 329 329 327
339 335 330 327 324 320 317 316 315 316 316 316 317 318 319 321 322 322 322 321 327 331 332 331 330 330 330 330 331 330 332 332 333 334 332 327 326 329 336 332 331 330 328
340 339 336 332 329 324 322 319 317 316 317 317 317 318 321 323 323 323 322 322 330 333 334 333 332 330 330 328 325 327 330 329 330 331 328 325 328 325 332 332 331 330 329
332 337 338 337 335 331 327 325 321 319 318 319 319 320 322 323 325 325 324 323 331 334 335 335 333 331 330 328 327 327 321 325 328 328 326 325 326 324 333 332 331 330 330
327 330 334 337 338 337 332 329 324 325 320 322 323 323 323 325 326 326 325 324 333 333 333 335 334 331 330 330 329 329 329 329 330 330 330 329 328 324 331 334 331 331 330
325 326 330 334 338 339 337 332 329 325 325 324 325 326 325 325 325 325 325 326 334 334 333 334 334 332 330 330 330 330 331 331 330 331 331 331 330 326 330 334 333 331 329
326 327 326 331 334 340 340 337 333 329 330 329 329 328 327 326 324 325 325 331 335 334 334 334 333 332 331 331 330 330 331 331 330 330 328 329 330 329 330 331 331 331 330
327 327 326 326 331 339 339 339 338 336 334 332 330 331 330 327 325 325 326 334 336 334 333 334 333 332 331 331 330 329 331 330 329 330 328 329 330 329 330 330 329 329 331
326 326 327 326 329 337 340 339 339 339 338 336 334 333 331 329 327 328 328 337 336 334 335 334 333 332 331 331 330 330 330 329 328 329 328 328 329 329 329 329 328 328 328
326 326 326 326 329 334 338 340 340 339 339 338 337 335 332 330 328 329 331 337 335 336 335 333 333 332 332 331 331 330 330 329 328 328 328 327 329 330 330 329 328 328 327
325 325 326 326 331 336 340 341 340 340 340 339 339 336 336 334 334 333 336 336 335 334 334 333 333 333 332 331 330 329 329 328 328 328 327 327 328 329 329 329 327 328 328
324 325 327 326 329 338 342 341 340 340 340 340 340 340 338 339 337 337 337 335 335 334 333 333 333 331 331 330 329 328 328 327 327 327 327 327 328 327 328 328 328 328 329
325 326 327 327 329 336 340 341 341 340 339 341 341 340 341 340 340 339 337 334 334 334 334 333 331 330 329 328 326 325 325 326 327 327 327 327 328 328 328 328 328 327 328
324 326 327 328 332 338 341 343 341 339 339 339 340 341 339 339 336 338 333 335 334 333 332 331 329 328 328 327 327 324 323 323 324 326 326 326 327 328 328 327 327 327 326
324 325 331 334 338 343 342 343 340 337 335 334 337 337 334 335 335 334 335 334 332 331 330 329 329 328 327 325 326 326 324 323 324 323 325 326 327 327 327 327 328 327 327
323 330 340 342 344 345 344 343 339 335 335 335 335 335 334 334 335 335 334 331 330 329 329 329 328 328 328 327 325 325 325 325 325 322 324 324 326 327 328 327 327 327 328
338 344 345 345 345 345 344 342 340 337 334 333 333 335 335 335 334 332 331 331 330 327 327 328 328 328 328 328 327 326 325 323 322 323 322 319 322 326 327 328 328 329 329
Wind_Speed
32 30 32 29 26 23 22 22 21 19 18 18 17 17 16 15 13 11 9 9 8 7 6 4 4 2 1 2 3 3 3 3 4 4 3 1 1 5 5 6 7 10 13
34 33 34 31 27 25 23 23 22 21 19 18 17 17 16 14 13 12 11 9 8 7 6 4 3 3 2 1 1 2 3 3 4 5 5 4 3 3 6 8 9 12 12
25 37 37 33 30 27 26 24 22 21 20 19 18 17 15 14 12 11 10 9 8 8 7 6 5 3 2 2 1 2 3 4 4 4 4 6 5 4 5 6 9 12 13
28 37 38 34 32 29 27 25 23 22 21 20 19 17 16 15 13 11 10 9 9 9 8 7 5 4 3 3 2 3 4 5 5 5 6 5 6 7 5 8 9 11 13
32 37 38 36 34 31 29 26 25 23 22 21 20 18 17 15 14 13 11 9 9 9 8 7 6 5 5 5 5 5 6 6 7 6 6 5 6 5 6 10 13 12 13
31 38 39 38 35 32 30 29 27 26 24 22 20 19 17 17 15 14 12 9 9 10 9 8 8 7 7 6 7 8 9 8 8 8 7 5 4 4 4 11 15 12 13
32 38 39 39 37 35 33 31 30 28 27 25 23 21 19 17 16 14 12 10 9 10 10 10 9 9 10 11 10 10 10 10 10 10 7 6 4 5 7 9 12 12 13
32 38 40 40 38 37 35 34 32 31 29 28 25 23 21 19 17 14 12 10 9 9 10 11 10 11 13 13 13 13 13 12 11 11 9 8 6 5 10 11 10 9 10
29 37 40 41 41 39 37 36 35 33 32 29 27 25 23 21 19 15 12 10 9 9 9 10 11 12 12 13 13 13 13 14 14 14 12 12 8 5 11 13 12 10 10
29 34 38 40 41 42 41 38 37 34 32 30 29 27 25 22 20 17 14 11 10 9 8 8 9 12 12 13 13 14 14 15 15 15 14 13 11 8 13 14 14 13 11
26 30 36 40 42 44 43 41 39 36 34 33 31 30 27 25 22 19 15 12 11 10 10 10 9 11 12 13 13 13 13 14 16 17 17 15 13 13 11 16 15 14 13
30 34 39 41 43 45 45 43 41 40 38 37 36 34 32 28 25 22 17 14 12 11 11 11 12 11 12 12 12 12 14 14 17 18 18 17 16 14 13 15 16 15 15
39 33 41 44 44 44 44 44 44 44 42 41 40 37 35 31 28 24 20 17 14 14 15 14 15 14 14 13 12 10 11 11 12 15 16 15 17 16 13 13 16 15 13
28 35 38 43 45 45 44 45 46 45 47 46 44 40 37 35 31 28 23 19 16 15 15 15 16 15 16 14 14 12 10 12 12 13 12 14 15 15 11 14 17 16 15
21 25 35 39 45 46 46 42 44 48 48 47 45 44 41 38 34 30 25 21 19 17 17 16 17 17 17 16 16 16 14 14 14 12 10 11 10 13 14 17 17 16 16
24 28 29 34 38 42 46 48 48 46 44 43 43 45 44 37 35 30 27 24 21 19 17 16 17 17 18 17 17 17 16 14 14 16 14 13 12 12 12 17 17 16 15
36 37 30 31 36 41 46 46 45 44 42 43 44 43 41 38 34 33 29 26 23 19 17 17 16 16 17 16 17 17 17 16 16 17 15 15 16 13 17 16 15 14 14
40 37 34 30 36 40 42 43 43 43 42 39 39 40 37 35 35 34 30 26 20 18 17 17 18 17 16 16 18 18 19 20 20 17 14 14 15 15 19 17 15 15 14
47 44 35 30 35 39 41 39 38 36 37 34 35 34 33 31 35 30 29 24 20 17 17 18 18 17 18 21 24 24 19 19 19 17 16 15 14 17 19 19 16 15 14
40 35 32 30 33 34 35 33 31 32 31 32 31 30 28 30 28 28 27 23 18 17 17 17 17 16 20 21 20 20 18 17 19 18 15 15 15 18 18 17 16 16 15
35 29 26 26 31 32 33 29 28 31 31 29 29 27 25 25 24 27 26 21 18 18 17 16 15 16 18 16 8 10 13 14 14 15 16 17 16 16 19 18 15 13 14
30 29 31 33 29 32 30 26 16 25 26 28 24 23 25 24 24 26 25 21 16 16 16 15 14 13 10 10 5 2 1 4 12 13 12 14 15 15 16 16 16 15 11
24 28 25 27 28 28 26 22 15 20 21 20 22 23 20 22 23 26 23 18 16 14 14 14 13 13 10 7 10 4 1 3 1 8 16 19 15 14 15 14 14 15 14
27 22 20 22 22 23 24 25 29 19 19 20 33 24 23 24 24 23 21 17 13 12 12 12 10 10 10 9 10 13 2 2 2 1 6 10 13 11 10 12 13 11 14
19 21 20 20 21 23 27 29 30 25 19 27 29 27 24 23 22 21 18 14 10 10 10 9 9 10 11 10 10 5 13 6 2 1 2 1 9 8 6 10 10 11 12
12 17 19 23 25 26 26 30 31 31 27 27 23 24 24 22 20 17 14 10 9 9 9 9 10 11 12 13 13 14 9 4 4 3 1 1 2 4 4 5 9 9 11
Wind_Direction
195 183 180 179 169 166 164 156 152 146 143 142 143 144 145 146 150 155 160 162 166 171 179 176 169 183 218 247 268 279 292 271 247 238 230 216 191 148 178 180 173 168 161
188 185 182 178 172 171 169 163 158 153 151 148 149 148 147 149 151 156 161 163 166 174 177 173 165 164 171 233 285 311 312 294 284 268 245 249 212 201 170 192 179 182 176
182 178 184 178 177 176 175 170 165 160 157 157 157 154 152 153 154 159 163 166 169 171 171 173 175 178 185 187 269 290 290 293 295 293 301 255 225 205 190 198 202 203 184
182 181 185 181 181 181 180 177 173 169 165 164 164 161 161 160 162 164 167 170 173 175 180 180 187 190 204 199 236 272 281 284 285 293 285 278 226 208 214 204 210 200 198
184 187 188 185 185 185 185 182 180 177 174 173 173 170 169 169 170 171 171 176 180 184 190 194 204 214 225 234 239 253 265 273 281 285 288 282 228 225 251 216 206 207 200
188 190 192 189 190 190 190 188 186 185 183 183 180 178 178 176 177 177 175 180 188 196 203 209 218 231 245 250 247 255 250 260 270 280 287 260 262 288 239 211 198 205 201
193 194 196 194 195 196 195 195 193 192 191 191 188 185 184 182 184 184 182 186 194 204 215 222 230 240 249 250 255 255 251 257 267 273 281 263 267 299 190 191 198 204 199
198 199 200 199 201 201 200 200 199 198 198 198 194 193 190 188 187 189 190 192 198 212 223 231 238 250 256 257 256 251 250 251 260 265 269 263 259 288 199 197 193 199 206
206 204 203 203 205 207 206 204 205 203 203 203 202 200 198 196 192 191 193 197 204 216 229 240 249 257 264 263 263 258 247 247 255 264 260 262 248 265 203 212 208 213 208
211 212 209 209 209 209 210 209 209 209 209 210 208 208 207 205 199 198 196 201 208 218 233 245 257 263 266 265 259 257 254 250 250 255 258 260 254 255 223 222 220 212 220
223 222 215 214 214 214 215 212 211 212 214 215 216 214 211 210 208 204 205 209 214 223 236 241 253 269 274 268 264 258 253 250 248 249 254 262 257 250 245 232 231 226 233
222 226 222 221 219 217 216 215 213 213 214 218 218 216 215 213 214 212 211 215 221 226 237 245 253 263 266 266 267 256 250 248 249 253 256 254 258 256 255 231 229 234 235
227 228 226 226 224 220 217 216 215 216 216 218 219 218 217 215 215 217 217 218 221 230 238 241 249 251 259 266 270 273 249 249 256 260 260 260 258 251 247 228 228 226 235
230 228 230 228 227 224 220 216 215 218 218 220 221 218 217 217 215 219 220 224 223 226 236 242 248 252 258 262 264 261 255 260 272 273 267 262 260 234 239 232 227 227 231
246 236 230 228 227 227 219 216 218 221 221 220 221 222 219 218 217 218 221 225 223 226 233 239 245 248 254 258 263 260 257 266 269 271 265 267 258 227 246 225 227 229 227
266 269 253 231 230 223 221 222 222 221 221 221 222 223 222 219 222 220 224 225 224 230 233 237 240 247 255 257 256 257 251 261 265 272 272 271 228 240 228 212 225 225 234
283 284 272 246 233 226 223 220 221 222 219 222 223 225 224 221 222 225 224 225 226 233 233 231 232 245 252 249 247 248 245 254 264 263 266 255 238 243 219 219 223 230 236
282 278 269 251 236 224 223 223 222 222 222 220 218 223 225 222 223 223 224 222 225 233 230 225 231 239 249 242 246 243 248 257 262 255 256 252 250 228 215 222 228 234 241
280 279 269 249 227 223 223 221 220 219 220 217 218 222 223 219 223 216 222 217 222 225 224 227 232 240 251 256 256 256 253 254 256 257 248 248 241 221 212 216 223 231 240
281 280 264 235 219 217 216 216 217 217 217 215 218 216 216 211 212 211 213 213 217 222 223 230 240 249 258 263 264 261 254 254 253 252 246 241 234 234 226 216 219 230 234
278 268 232 216 216 211 204 195 199 200 201 206 210 211 208 209 202 206 211 213 217 221 230 241 255 265 268 263 263 254 247 250 254 247 239 237 236 238 234 230 221 237 231
260 249 233 229 220 214 207 194 199 191 193 198 199 200 200 199 201 202 208 215 223 230 235 245 254 258 252 254 195 145 286 269 254 240 234 231 231 230 222 227 236 239 238
252 238 226 220 216 207 197 180 171 170 170 172 182 179 182 192 196 204 213 219 225 228 237 246 249 242 241 229 203 166 129 224 42 257 261 239 230 230 228 234 232 237 242
255 238 229 216 203 196 185 177 161 151 152 161 165 176 190 195 202 202 211 214 220 229 240 249 243 241 228 217 214 228 212 134 173 186 227 218 216 219 225 231 225 238 234
248 221 202 182 178 174 176 177 160 150 156 159 169 176 189 195 197 197 203 202 214 244 241 232 235 235 231 227 209 184 222 231 222 120 297 10 194 207 229 213 221 230 219
169 162 161 155 155 158 167 171 168 161 152 155 157 162 169 175 182 192 196 212 230 225 230 233 238 236 235 233 232 226 206 175 189 163 164 299 141 125 159 176 195 192 209